Flag for Canada Weather past 2 weeks in Abbotsford, British Columbia, Canada

Now
41 °F

Light rain. Mostly cloudy.


Feels Like: 39 °F
Forecast: 40 / 46 °F
Wind: 3 mph from North

Location: Abbotsford

Current Time: Dec 18, 2014 at 12:59:40 AM

Latest Report: Dec 18, 2014 at 12:00 AM


Visibility: 8 mi

Pressure: 29.93 "Hg

Humidity: 100%

Dew point: 41 °F

Location of AbbotsfordLocation

Historic Weather in Abbotsford — Graph

°F

Abbotsford temperature yesterday

Maximum temperature yesterday: 45 °F (at 12:00 PM)
Minimum temperature yesterday: 39 °F (at 12:00 AM)
Average temperature yesterday: 41 °F

Past Weeks' High & Low Weather Summary

 TemperatureHumidityPressure
High64 °F (Dec 10, 11:00 AM)100% (Dec 5, 1:00 AM)30.26 "Hg (Dec 5, 1:00 AM)
Low28 °F (Dec 4, 12:00 AM)39% (Dec 3, 2:00 PM)29.18 "Hg (Dec 11, 6:00 PM)
Average44 °F82%29.87 "Hg
* Reported Midnight between Dec 2 and Dec 3 — Midnight between Dec 17 and Dec 18, Abbotsford, Weather by CustomWeather, © 2014

Note: Actual official high and low records may vary slightly from our data, if they occured in-between our weather recording intervals... More about our weather records

Advertising

Abbotsford weather history for previous 24 hours

 ConditionsComfort  
Time TempWeatherWind HumidityBarometerVisibility
12:00 AM
Dec 18
41 °FLight rain. Mostly cloudy.3 mph100%29.93 "Hg8 mi
11:00 PM
Dec 17
41 °FLight rain. Overcast.3 mph100%29.92 "Hg8 mi
10:00 PM41 °FLight rain. Mostly cloudy.3 mph93%29.91 "Hg15 mi
9:00 PM41 °FLight rain. Mostly cloudy.5 mph93%29.92 "Hg15 mi
8:00 PM41 °FMostly cloudy.6 mph93%29.91 "Hg10 mi
7:00 PM43 °FLight rain. Overcast.5 mph87%29.91 "Hg6 mi
6:00 PM43 °FLight rain. Mostly cloudy.3 mph87%29.90 "Hg8 mi
5:00 PM43 °FOvercast.3 mph87%29.88 "Hg10 mi
4:00 PM43 °FLight rain. Mostly cloudy.6 mph87%29.87 "Hg15 mi
3:00 PM43 °FLight rain. Overcast.3 mph87%29.87 "Hg10 mi
2:00 PM45 °FLight rain. Overcast.5 mph81%29.85 "Hg20 mi
1:00 PM45 °FLight rain. Overcast.3 mph81%29.85 "Hg15 mi
12:00 PM45 °FLight rain. Overcast.3 mph76%29.86 "Hg15 mi
11:00 AM43 °FLight rain. Mostly cloudy.3 mph81%29.86 "Hg20 mi
10:00 AM41 °FMostly cloudy.3 mph87%29.86 "Hg20 mi
9:00 AM41 °FLight rain. Overcast.7 mph87%29.85 "Hg20 mi
8:00 AM41 °FOvercast.3 mph81%29.84 "Hg20 mi
7:00 AM41 °FOvercast.6 mph81%29.84 "Hg15 mi
6:00 AM39 °FOvercast.3 mph87%29.82 "Hg15 mi
5:00 AM39 °FOvercast.3 mph87%29.82 "Hg15 mi
4:00 AM39 °FOvercast.3 mph87%29.83 "Hg15 mi
3:00 AM39 °FOvercast.2 mph87%29.83 "Hg15 mi
2:00 AM39 °FOvercast.6 mph87%29.83 "Hg15 mi
1:00 AM39 °FPassing clouds.5 mph87%29.83 "Hg15 mi
12:00 AM39 °FPassing clouds.6 mph87%29.85 "Hg15 mi
Weather by CustomWeather, © 2014

See weather overviewHow to use our weather pages